Location: �perlecques
(50.8057°N, 2.1521°E)
Time: 15:21:00
(UTC+00:00)

YUBILEINY - Pass Details

Date: 04 April 2023
Orbit: 1478 x 1508 km, 82.5° (Epoch: 01 June)

Event Time Altitude Azimuth Distance (km) Brightness Sun altitude
Rises 23:41:33 0° 346° (NNW) 4,648 ? -33.2°
Reaches altitude 10° 23:44:41 10° 339° (NNW) 3,668 ? -33.3°
Maximum altitude 23:52:30 38° 277° (W) 2,169 ? -33.3°
Enters shadow 23:54:08 35° 255° (WSW) 2,256 ? -33.3°
